This is the latest recevied weather packets stored in our database for station/object SP5EB-3. If no packets are shown the sender has not sent any weather packets the latest 10 day(s).
| Time | Temp. | Humidity | Pressure | Rain* | Wind** | Luminosity | Snow |
|---|---|---|---|---|---|---|---|
| 1777443029 | 3.33° C | 99% | 1024.5 hPa | - | - | - | - |
| 1777442723 | 2.78° C | 99% | 1024.5 hPa | - | - | - | - |
| 1777442417 | 2.78° C | 99% | 1024.4 hPa | - | - | - | - |
| 1777442111 | 2.78° C | 99% | 1024.4 hPa | - | - | - | - |
| 1777441805 | 2.22° C | 99% | 1024.3 hPa | - | - | - | - |
| 1777441498 | 2.22° C | 99% | 1024.2 hPa | - | - | - | - |
| 1777441192 | 1.67° C | 99% | 1024.3 hPa | - | - | - | - |
| 1777440581 | 1.67° C | 1% | 1024.2 hPa | - | - | - | - |
| 1777440275 | 1.67° C | 1% | 1024.2 hPa | - | - | - | - |
| 1777439969 | 1.11° C | 1% | 1024.1 hPa | - | - | - | - |
| 1777439662 | 1.11° C | 1% | 1024 hPa | - | - | - | - |
| 1777439357 | 1.11° C | 1% | 1023.9 hPa | - | - | - | - |
| 1777439051 | 0.56° C | 99% | 1023.9 hPa | - | - | - | - |
| 1777438745 | 0.56° C | 99% | 1023.9 hPa | - | - | - | - |
| 1777438439 | 0.56° C | 99% | 1024 hPa | - | - | - | - |
| 1777438134 | 0.56° C | 99% | 1024 hPa | - | - | - | - |
| 1777437827 | 0.56° C | 99% | 1023.8 hPa | - | - | - | - |
| 1777437216 | 0° C | 99% | 1023.8 hPa | - | - | - | - |
| 1777436910 | 0° C | 99% | 1023.7 hPa | - | - | - | - |
| 1777436604 | 0° C | 99% | 1023.7 hPa | - | - | - | - |
| 1777436299 | 0° C | 99% | 1023.6 hPa | - | - | - | - |
| 1777435992 | 0° C | 99% | 1023.6 hPa | - | - | - | - |
| 1777435686 | 0° C | 99% | 1023.7 hPa | - | - | - | - |
| 1777435381 | 0° C | 99% | 1023.6 hPa | - | - | - | - |
| 1777435075 | 0° C | 99% | 1023.5 hPa | - | - | - | - |
* Rain since midnight (hover to see other rain measurements)
** Current wind speed in m/s (hover to see current wind gust speed)